Location: Unspecified
(32.7370°N, 118.4260°E)
Time: 14:14:14
(UTC+00:00)

Daily predictions for brighter satellites

Satellite Brightness Start Highest point End
(mag) Time Altitude Azimuth Time Altitude Azimuth Time Altitude Azimuth
Aureole 2 Rocket 3.9 12:01:07 10° SW 12:04:32 38° WNW 12:07:49 10° N
Cosmos 1980 Rocket 4.0 12:02:32 10° S 12:15:33 - NNE 12:03:40 16° S
SL-4 R/B 4.3 12:06:39 10° W 12:10:12 23° NW 12:12:43 14° N
Cosmos 332 Rocket 3.7 12:08:23 10° NNW 12:12:50 71° NNE 12:12:50 71° NNE
Cosmos 1707 3.5 12:13:14 10° NNW 12:16:27 50° NW 12:16:27 50° NW
Cosmos 1818 3.4 12:11:44 10° SSW 12:16:58 77° SE 12:16:58 77° SE
COBE Rocket 3.9 12:13:15 10° N 12:18:13 76° WNW 12:22:59 10° SSW
USA 267 3.5 12:13:44 10° NE 12:20:14 69° NW 12:26:41 10° SW
USA 186 4.0 12:23:55 27° W 12:23:55 27° W 12:26:31 10° NW
Cosmos 2061 Rocket 4.2 12:28:19 10° N 12:33:24 56° NNE 12:33:24 56° NNE
Cosmos 2227 Rocket 2.6 12:32:39 10° NNW 12:38:12 57° WSW 12:38:42 55° SW
H-2A R/B 2.8 12:40:04 46° N 12:40:04 46° N 12:43:48 10° N
ARGOS 3.8 12:41:01 49° N 12:41:01 49° N 12:44:53 10° NNW
Cosmos 2100 Rocket 4.1 12:36:55 10° N 12:43:07 70° W 12:43:55 63° SW
Cosmos 1802 Rocket 4.3 12:47:29 10° N 12:52:29 59° NNW 12:52:29 59° NNW
Cosmos 2173 Rocket 4.5 12:53:43 10° NNW 12:59:35 54° W 12:59:35 54° W
Cosmos 1697 Rocket 4.4 12:55:07 10° WSW 13:00:00 30° WNW 13:04:55 10° N
Cosmos 2297 Rocket 4.2 13:18:56 10° NW 13:22:58 21° W 13:22:58 21° W
CZ-4C R/B 4.3 13:43:38 10° NNW 13:47:01 29° N 13:47:01 29° N
FALCON 9 R/B 4.4 13:43:47 10° W 13:53:08 25° WSW 13:53:08 25° WSW
COSMOS 2455 4.4 19:02:58 30° NE 19:02:58 30° NE 19:05:57 10° NNE
Nadezhda 1 Rocket 4.0 19:38:27 10° N 19:44:15 75° NE 19:44:15 75° NE
Cosmos 1607 4.1 19:48:02 10° NNW 19:54:10 69° ENE 20:00:14 10° SE
Cosmos 1125 Rocket 4.4 19:59:31 40° N 19:59:31 40° N 20:02:59 10° N
IDEFIX/ARIANE 42P 2.9 20:00:53 10° NNE 20:06:02 63° E 20:07:58 37° SSE
Meteor 1-27 Rocket 3.6 20:07:07 55° S 20:08:25 85° E 20:14:08 10° N
Cosmos 1536 4.4 20:10:25 10° NNE 20:14:09 36° E 20:17:53 10° SSE
Cosmos 1908 Rocket 3.8 20:10:29 10° N 20:14:55 68° E 20:19:21 10° SSE
COSMOS 2406 3.5 20:12:26 33° S 20:15:03 68° ESE 20:20:48 10° NNE
Okean 1-7 3.1 20:19:22 55° SSE 20:20:11 72° E 20:24:27 10° N
Cosmos 1809 Rocket 4.3 20:18:21 23° S 20:22:20 85° W 20:28:26 10° N
Cosmos 44 Rocket 3.3 20:21:26 55° SSW 20:22:36 88° ESE 20:27:50 10° NNE
CZ-4B R/B 4.5 20:20:05 10° NNE 20:24:05 57° E 20:26:38 22° S
Haruka 3.8 20:24:22 35° WSW 20:28:36 70° S 20:32:46 10° E
CZ-2C R/B 3.3 20:24:48 10° NNE 20:29:36 48° E 20:34:12 10° S
CZ-4B R/B 2.6 20:25:43 10° N 20:29:31 82° NNW 20:29:31 82° NNW
Meteor 1-5 Rocket 4.1 20:24:06 10° N 20:29:47 89° W 20:35:16 10° S
SJ-6F 4.3 20:26:15 10° NNE 20:30:24 86° ESE 20:31:37 45° S
Cosmos 1782 Rocket 4.2 20:26:40 10° N 20:31:05 56° E 20:35:26 10° SSE
Meteor PRIRODA 4.3 20:28:41 10° NNE 20:32:22 54° E 20:35:07 16° S
Cosmos 1500 3.7 20:30:37 10° N 20:34:24 59° E 20:38:11 10° SSE
Meteor 1-31 Rocket 2.6 20:33:02 10° NNE 20:36:51 89° E 20:38:05 41° S
Meteor 1-11 Rocket 3.8 20:36:10 10° NNW 20:42:05 67° W 20:47:59 10° S
Cosmos 1703 Rocket 3.8 20:42:27 43° WNW 20:42:27 43° WNW 20:46:19 10° N
Cosmos 1048 Rocket 4.1 20:38:10 10° NNW 20:43:09 48° WSW 20:48:11 10° S
Helios 1A Rocket 3.2 20:41:51 10° N 20:45:50 46° WNW 20:46:19 44° W
PSLV R/B 3.5 20:42:29 10° N 20:46:11 75° WNW 20:47:46 32° SSW
COSMOS 2455 4.3 20:46:07 19° NW 20:46:21 19° NW 20:50:34 10° N
Cosmos 2082 Rocket 4.1 20:42:07 10° SSE 20:46:59 30° ESE 20:51:53 10° NE
FALCON 9 R/B 2.1 20:47:16 36° SW 20:47:27 36° SW 20:50:08 10° SE
ISS -2.7 20:48:47 31° S 20:48:47 31° S 20:50:56 10° SSE
USA 267 3.2 20:41:17 10° SE 20:47:51 88° SW 20:54:27 10° NW
Tiangong 2 3.6 20:47:12 13° NNW 20:48:23 15° N 20:50:17 10° NE
Meteor 2-16 Rocket 4.3 20:48:29 10° S 20:54:34 80° W 21:00:43 10° N
Aureole 1 Rocket 4.3 20:50:58 10° N 20:55:32 42° ENE 20:59:06 10° SE
Meteor 2-14 Rocket 4.4 20:50:09 10° SSW 20:56:07 57° W 21:02:06 10° N
PAYLOAD A 4.1 20:51:42 10° N 20:56:59 64° WNW 21:02:20 10° SSW
MSX 3.8 20:56:43 10° N 21:02:24 60° WNW 21:08:03 10° SSW
Cosmos 1269 Rocket 4.1 21:02:28 10° NNW 21:07:38 54° WSW 21:12:46 10° S
Cosmos 1812 4.2 21:10:37 19° WNW 21:10:37 19° WNW 21:12:57 10° NNW
Okean O Rocket 1.5 21:07:01 10° N 21:11:23 86° WNW 21:15:43 10° SSW
Sich 1 Rocket 3.8 21:07:00 10° NNW 21:11:26 49° W 21:15:48 10° SSW
Cosmos 1932 4.4 21:05:16 10° NNW 21:11:37 83° WSW 21:18:02 10° SSE
Cosmos 1833 Rocket 2.8 21:13:53 10° SSW 21:19:29 82° ESE 21:25:06 10° NNE
Cosmos 2221 Rocket 4.1 21:18:39 10° SSW 21:22:49 37° W 21:27:02 10° NNW
Cosmos 2098 Rocket 4.4 21:18:27 10° SSW 21:25:20 47° W 21:31:18 10° N
Cosmos 2154 Rocket 4.2 21:20:06 10° S 21:26:22 83° E 21:32:43 10° N
Cosmos 2327 Rocket 4.4 21:21:55 10° SSW 21:27:57 69° W 21:34:05 10° N
Cosmos 2074 Rocket 4.4 21:34:13 10° SSW 21:39:59 40° W 21:45:48 10° N
Cosmos 2251 Rocket 3.8 21:35:05 10° NNW 21:40:29 79° ENE 21:45:50 10° SSE
NOSS 2-2 (E) 3.6 21:37:42 10° SSW 21:41:23 65° ESE 21:45:14 10° NE
CZ-4B R/B 3.5 21:39:07 10° N 21:44:25 49° WNW 21:49:48 10° SW
IDEFIX/ARIANE 42P 4.3 21:42:46 10° NW 21:45:01 13° WNW 21:47:16 10° W
Cosmos 2369 4.4 21:42:35 10° NNW 21:48:16 63° ENE 21:53:55 10° SSE
Aureole 2 Rocket 3.9 21:46:19 10° N 21:48:49 32° ENE 21:51:15 10° SE
COSMO-SKYMED 1 2.7 21:46:02 10° S 21:50:15 52° W 21:54:30 10° NNW
